Regional Weather Roundup
Issued by NWS

Home | Current Version | Previous Version | Graphics & Text | Print | Product List | Glossary On
Versions: 1 2 3 4 5 6 7 8 9 10 11 12 13 14 15 16 17 18 19 20 21 22 23 24 25 26 27 28 29 30 31 32 33 34 35 36 37 38 39 40 41 42 43 44 45 46 47 48 49 50
000
ASUS43 KLOT 231204
RWRIL

ILLINOIS REGIONAL WEATHER ROUNDUP
NATIONAL WEATHER SERVICE CHICAGO/ROMEOVILLE IL
700 AM CDT TUE MAY 23 2017

NOTE: "FAIR" INDICATES FEW OR NO CLOUDS BELOW 12,000 FEET WITH NO
SIGNIFICANT WEATHER AND/OR OBSTRUCTIONS TO VISIBILITY.

* THESE STATIONS ARE NOT UNDER NWS QUALITY CONTROL. THEY ALSO MAY NOT
  REPORT WEATHER SUCH AS PRECIPITATION OR FOG.

ILZ001-002-007-009-015-016-024-231300-
NORTHWEST ILLINOIS

CITY           SKY/WX    TMP DP  RH WIND       PRES   REMARKS
MOLINE           N/A     56  53  90 SW5       29.79F
6HR MIN TEMP:  54; 6HR MAX TEMP:  58;

STERLING*      CLOUDY    56  54  93 CALM      29.81R
SAVANNA*       CLOUDY    55  51  88 SW6       29.79S
$$

ILZ003-004-008-010-011-017-018-231300-
NORTH CENTRAL ILLINOIS

CITY           SKY/WX    TMP DP  RH WIND       PRES   REMARKS
ROCKFORD       CLOUDY    56  52  86 SW7       29.81R
6HR MIN TEMP:  55; 6HR MAX TEMP:  58;

FREEPORT*      CLOUDY    53  51  93 S9        29.80S
ROCHELLE*      CLOUDY    55  53  95 S7        29.81S
DE KALB*       CLOUDY    56  54  93 S7        29.81F
PERU*          RAIN      55  54  94 SW14      29.83S
$$

ILZ005-006-012>014-019>023-231300-
NORTHEAST ILLINOIS

CITY           SKY/WX    TMP DP  RH WIND       PRES   REMARKS
CHICAGO-OHARE  CLOUDY    59  52  77 SW10      29.81R
6HR MIN TEMP:  59; 6HR MAX TEMP:  60;

CHICAGO-MIDWAY CLOUDY    60  54  80 SW9       29.82R
6HR MIN TEMP:  60; 6HR MAX TEMP:  61;

AURORA         CLOUDY    58  54  86 SW8       29.82S
6HR MIN TEMP:  57; 6HR MAX TEMP:  59;

LANSING*       LGT RAIN  59  55  87 SW3       29.84S
WAUKEGAN       CLOUDY    58  54  86 SW10G16   29.79S
6HR MIN TEMP:  55; 6HR MAX TEMP:  59;

DUPAGE AIRPORT CLOUDY    57  55  93 SW10      29.81S
6HR MIN TEMP:  55; 6HR MAX TEMP:  59;

KANKAKEE*      CLOUDY    57  53  85 CALM      29.84F
WHEELING       PTSUNNY   58  54  86 SW9       29.82S
6HR MIN TEMP:  57; 6HR MAX TEMP:  60;

MORRIS*        LGT RAIN  57  55  91 SW7       29.82S
ROMEOVILLE*    DRIZZLE   58  56  95 SW8       29.83S
NORTHERLY ISL    N/A     60  51  72 SW6         N/A
$$

LMZ740>746-231300-
SOUTHERN LAKE MICHIGAN

STATION/POSITION SKY/WX   TEMP    WIND        PRES    VSBY  WAVE
                          AIR SEA DIR/SP/G                  HT/PER
                          (F)     (DEG/KT/KT) (MB)    (MI)  (FT/S)
SOUTHERN BUOY              49 45  210/  8/  8 1009.6          1/ 4
WILMETTE HARBOR            56 53                N/A           1/ 2
HARRISON CRIB              61     220/ 18/ 21   N/A
BURNHAM HARBOR             60     170/  5/ 10   N/A
CALUMET HARBOR             60     200/  7/  9 1009.5R
BURNS HARBOR               60     190/ 10/ 14 1010.8S
MICHIGAN CITY              60     160/ 10/ 12   N/A
MICHIGAN CITY 6N           58 53  200/ 12/ 14   N/A           1/ 2
ST. JOSEPH                 58 55  190/  8/ 10 1010.5S         1/ 3
$$

ILZ025>027-034>036-040-047-049-050-058-095>099-231300-
WEST-CENTRAL ILLINOIS

CITY           SKY/WX    TMP DP  RH WIND       PRES   REMARKS
QUINCY         RAIN      56  55  97 SW8       29.82S FOG
GALESBURG*     DRIZZLE   55  55  99 S7        29.81S
MACOMB*        LGT RAIN  55  55  99 S7        29.84S
JACKSONVILLE*  DRIZZLE   56  55  94 E3        29.83F
PITTSFIELD*    CLOUDY    56  56  98 CALM      29.84S
$$

ILZ028>032-037-038-041>044-048-051>054-059>061-231300-
CENTRAL ILLINOIS

CITY           SKY/WX    TMP DP  RH WIND       PRES   REMARKS
PONTIAC        DRIZZLE   58  57  95 W8        29.85S
BLOOMINGTON    CLOUDY    57  53  86 W9        29.85F
DECATUR        MOSUNNY   58  55  90 N3        29.84F
PEORIA         LGT RAIN  56  55  97 SW3       29.83F
6HR MIN TEMP:  56; 6HR MAX TEMP:  58; 6HR PCP:  0.16;

LACON*         LGT RAIN  56  55  99 SW6       29.83F
LINCOLN*       CLOUDY    58  58 100 CALM      29.84F
SPRINGFIELD    CLOUDY    59  58  96 E3        29.84F
6HR MIN TEMP:  58; 6HR MAX TEMP:  59; 6HR PCP:  0.02;

TAYLORVILLE    CLOUDY    58  55  89 N6        29.83F
6HR MIN TEMP:  56; 6HR MAX TEMP:  59;

$$

ILZ033-039-045-046-055>057-062-063-231300-
EAST-CENTRAL ILLINOIS

CITY           SKY/WX    TMP DP  RH WIND       PRES   REMARKS
CHAMPAIGN      CLOUDY    59  55  87 SE5       29.85S
RANTOUL*       PTSUNNY   60  57  91 CALM      29.85F
MATTOON        CLOUDY    59  57  93 CALM      29.84F
PARIS*         CLOUDY    58  54  85 CALM      29.86S
$$

ILZ079-100>102-231300-
SOUTHWEST ILLINOIS

CITY           SKY/WX    TMP DP  RH WIND       PRES   REMARKS
ALTON          CLOUDY    59  55  88 E7        29.83S
BELLEVILLE     LGT RAIN  59  57  91 CALM      29.83S
CAHOKIA*       CLOUDY    61  56  83 SE3       29.81F
SPARTA*        CLOUDY    59  55  87 SE3       29.83S
$$

ILZ064>066-069>071-074>076-080>082-084>086-088>090-092>094-231300-
SOUTH-CENTRAL ILLINOIS

CITY           SKY/WX    TMP DP  RH WIND       PRES   REMARKS
CARBONDALE     CLOUDY    59  55  87 CALM      29.82S
6HR MIN TEMP:  57; 6HR MAX TEMP:  59;

CAIRO*         MOSUNNY   62  57  85 CALM      29.82S
EFFINGHAM*     CLOUDY    59  57  91 CALM      29.86F
MARION         CLOUDY    61  59  94 E6        29.83S
MT. VERNON       N/A     58  56  93 CALM      29.84R
CENTRALIA*     CLOUDY    61  56  84 CALM      29.82F
SALEM*         CLOUDY    61  55  82 CALM      29.83S
$$

ILZ067-068-072-073-078-083-087-091-231300-
SOUTHEAST ILLINOIS

CITY           SKY/WX    TMP DP  RH WIND       PRES   REMARKS
LAWRENCEVILLE  PTSUNNY   61  52  72 CALM      29.85S
FLORA*         CLOUDY    61  56  82 CALM      29.84S
FAIRFIELD*     CLOUDY    60  57  92 CALM      29.82F
HARRISBURG*    CLOUDY    59  56  89 CALM      29.83F
ROBINSON*      CLOUDY    59  54  84 CALM      29.85F
CARMI*         MOSUNNY   60  56  87 E3        29.83S
$$

ABBREVIATIONS USED IN REMARKS
   TC - TEMPERATURE IN CELSIUS
  WCI - WIND CHILL INDEX
   HX - HEAT INDEX
  VSB - VISIBILITY
$$





USA.gov is the U.S. government's official web portal to all federal, state and local government web resources and services.